Location: Easthampton
(42.2676°N, 72.6690°W)
Time: 00:08:09
(UTC+00:00)

RS-44 - Pass Details

Date: 27 April 2024
Orbit: 1174 x 1511 km, 82.5° (Epoch: 28 May)

Event Time Altitude Azimuth Distance (km) Brightness Sun altitude
Rises 01:30:14 0° 224° (SW) 4,619 ? -17.7°
Reaches altitude 10° 01:33:44 10° 236° (SW) 3,617 ? -18.2°
Maximum altitude 01:40:55 28° 292° (WNW) 2,426 ? -19.2°
Drops below altitude 10° 01:47:50 10° 349° (NNW) 3,452 ? -20.2°
Sets 01:51:08 0° 1° (N) 4,376 ? -20.6°
